www.pogodaiklimat.ru

Погода и климат >> Архив погоды >> Турция >> Измир


ПОГОДА в Измире

  • Прогноз погоды в Измире
  • Монитор погоды в Измире

АРХИВ ПОГОДЫ в Измире

Время (UTC), дата Ветер
(напр.,м/с)
 
Видим.   Явления Облачность Т
(С)
Тd
(С)
f
(%)
Тe
(С)
Тes
(С)
Комфортность P
(гПа)
Po
(гПа)
Тmin
(С)
Tmax
(С)
R
(мм)
R24
(мм)
S
(см)
10 12.09 З 5 20 км 3/0
[Ci fib]
+27.8 +17.7 54 +32 +39 душно 1015.5 1012.2
11 12.09 З 5 20 км 3/0
[Ci fib]
+27.5 +17.1 53 +31 +38 душно 1015.3 1012.0
12 12.09 З 6
{10}
20 км 3/0
[Ci fib]
+28.1 +17.4 52 +32 +37 душно 1014.8 1011.5
13 12.09 З 6 20 км ясно +28.3 +16.9 50 +32 +36 душно 1014.4 1011.1
14 12.09 З 5 20 км ясно +28.0 +16.3 49 +31 +34 душно 1013.9 1010.6
15 12.09 З 5
{10}
20 км ясно +27.9 +15.9 48 +31 +32 душно 1013.8 1010.5
16 12.09 З 5 20 км ясно +27.6 +16.3 50 +31 +31 душно 1013.8 1010.5
17 12.09 З 3 20 км ясно +27.1 +15.8 50 +30 +30 душно 1014.1 1010.8
18 12.09 З 2
{10}
20 км ясно +27.1 +15.1 48 +30 +30 душно 1014.6 1011.3 +28.7
19 12.09 ЮЗ 2 20 км ясно +25.9 +15.6 53 +29 +29 душно 1015.0 1011.7
20 12.09 Ю 1 20 км ясно +25.7 +14.8 51 +28 +28 жарко 1014.5 1011.2
21 12.09 З 3
{5}
20 км ясно +25.1 +14.6 52 +28 +28 жарко 1014.6 1011.3
22 12.09 СВ 5 20 км ясно +25.4 +14.9 52 +28 +28 жарко 1014.3 1011.0
23 12.09 ЮЗ 2 20 км ясно +24.4 +15.1 56 +27 +27 жарко 1014.0 1010.7
00 13.09 З 3
{8}
20 км 4/0
[Ac trans]
+23.9 +15.2 58 +27 +27 жарко 1013.3 1010.0
01 13.09 СЗ 2 20 км 4/0
[Ac trans]
+24.2 +15.2 57 +27 +27 жарко 1013.1 1009.8
02 13.09 СЗ 1 20 км 4/0
[Ac trans]
+23.7 +15.5 60 +27 +27 жарко 1012.8 1009.5
03 13.09 С 3
{6}
20 км 4/0
[Ac trans]
+24.3 +14.7 55 +27 +27 жарко 1012.6 1009.3
04 13.09 СВ 3 20 км 8/5 1000 м
[Cu med, cong Ac und]
+24.0 +14.1 54 +26 +26 жарко 1012.9 1009.6
05 13.09 СВ 5 20 км 8/5 1000 м
[Cu med, cong Ac und]
+24.4 +14.2 53 +27 +27 жарко 1013.0 1009.7
06 13.09 СВ 5-13
{13}
15 км гроза, ливневой дождь 8/8 900 м
[Cb cap]
+23.6 +13.5 53 +26 +26 жарко 1013.2 1009.9 +23.4 0.1
07 13.09 ЮЗ 3 15 км гроза, ливневой дождь 8/8 600 м
[Cb cap]
+22.8 +15.5 63 +27 +28 душно 1014.1 1010.8
08 13.09 СВ 6 15 км гроза, ливневой дождь 8/8 600 м
[Cb cap]
+22.8 +15.2 62 +27 +28 душно 1014.5 1011.2
09 13.09 В 2
{10}
15 км гроза, ливневой дождь 9/9 900 м
[Cb cap]
+21.5 +15.8 70 +25 +26 комфорт 1014.4 1011.1
10 13.09 СВ 4 15 км гроза, ливневой дождь 9/9 600 м
[Cb cap]
+21.6 +15.9 70 +25 +26 комфорт 1015.1 1011.8
11 13.09 СЗ 1 15 км слаб. ливневой дождь {гроза} 9/6 600 м
[Cu med, cong Ac As]
+20.7 +16.9 79 +25 +28 комфорт 1015.1 1011.8
12 13.09 СВ 3
{10}
15 км слаб. ливневой дождь {гроза} 9/6 960 м
[Cu med, cong Ac As]
+21.0 +17.6 81 +26 +28 душно 1014.7 1011.4 3
13 13.09 ЮВ 2 15 км слаб. ливневой дождь 9/6 600 м
[Cu med, cong Ac As]
+21.2 +17.6 80 +25 +27 комфорт 1014.3 1011.0
14 13.09 С 1 20 км в посл. час ливневой дождь 8/5 1000 м
[Cu med, cong Ac und]
+23.0 +16.4 66 +28 +29 душно 1014.3 1011.0
15 13.09 С 1
{5}
20 км {ливн. осадки} 8/5 1140 м
[Cu med, cong Ac und]
+22.9 +17.6 72 +28 +29 душно 1013.9 1010.6
16 13.09 З 2 20 км 8/5 1000 м
[Cu med, cong Ac und]
+23.2 +16.8 67 +28 +28 душно 1013.4 1010.1
17 13.09 ЮЗ 2 15 км слаб. ливневой дождь 8/5 1000 м
[Cu med, cong Ac und]
+22.3 +18.1 77 +27 +27 душно 1013.7 1010.4
18 13.09 В 1
{5}
15 км слаб. ливневой дождь 8/5 1050 м
[Cu med, cong Ac und]
+23.6 +17.2 67 +27 +27 жарко 1015.1 1011.8 +24.0 3
19 13.09 СВ 3 20 км в посл. час ливневой дождь 8/5 1000 м
[Cu med, cong Ac und]
+23.5 +12.5 50 +25 +25 комфорт 1015.2 1011.9
20 13.09 СВ 2 20 км 6/4 1000 м
[Cu med, cong Ac und]
+23.5 +9.8 42 +25 +25 комфорт 1015.3 1012.0
21 13.09 ЮВ 1
{6}
20 км {ливн. осадки} 6/4 1200 м
[Cu med, cong Ac und]
+22.3 +10.4 47 +24 +24 комфорт 1014.9 1011.6
22 13.09 ЮЗ 2 20 км 4/0
[Ac trans]
+21.9 +11.6 52 +24 +24 комфорт 1014.8 1011.5
23 13.09 СВ 2 20 км 3/0
[Ac trans]
+21.6 +11.0 51 +23 +23 комфорт 1014.6 1011.3
00 14.09 В 3
{7}
20 км {ливн. осадки} ясно +22.4 +10.2 46 +24 +24 комфорт 1014.1 1010.8 0.1
01 14.09 СВ 4 20 км ясно +21.9 +10.4 48 +24 +24 комфорт 1014.1 1010.8
02 14.09 СВ 3 20 км ясно +21.5 +10.0 48 +23 +23 комфорт 1014.1 1010.8
03 14.09 СВ 2
{7}
20 км ясно +21.7 +11.4 52 +24 +24 комфорт 1014.2 1010.9
04 14.09 СВ 5 20 км ясно +21.9 +11.6 52 +24 +24 комфорт 1014.5 1011.2
05 14.09 СВ 6 20 км 3/0
[Ac lent]
+22.3 +11.4 50 +24 +25 комфорт 1014.8 1011.5
06 14.09 СВ 6
{11}
20 км 3/0
[Ci fib]
+22.9 +11.6 49 +25 +26 комфорт 1015.1 1011.8 +21.4 0.1
07 14.09 СВ 4 20 км 3/0
[Ci fib]
+24.8 +11.3 43 +26 +31 жарко 1015.3 1012.0
08 14.09 С 5 20 км 3/0
[Ci fib]
+26.6 +11.8 40 +28 +33 жарко 1015.1 1011.8
09 14.09 С 5
{9}
20 км 3/0
[Ci fib]
+27.9 +11.8 37 +29 +36 жарко 1014.6 1011.3
10 14.09 С 4 20 км ясно +29.1 +11.1 33 +30 +39 жарко 1014.3 1011.0
11 14.09 С 4 20 км ясно +29.7 +12.0 34 +31 +41 жарко 1014.2 1010.9
12 14.09 СВ 2
{9}
20 км ясно +30.2 +11.1 31 +31 +43 жарко 1013.2 1009.9
13 14.09 С 4 20 км ясно +30.5 +14.5 38 +33 +38 душно 1012.6 1009.3
14 14.09 СВ 5 20 км ясно +30.5 +14.1 37 +32 +34 жарко 1012.3 1009.0
15 14.09 С 4
{8}
20 км ясно +29.5 +13.2 37 +31 +32 жарко 1012.3 1009.0
16 14.09 С 4 20 км ясно +27.8 +12.1 38 +29 +29 жарко 1012.9 1009.6
17 14.09 С 3 20 км ясно +26.7 +11.5 39 +28 +28 жарко 1013.7 1010.4
18 14.09 С 4
{8}
20 км ясно +25.9 +10.8 39 +27 +27 жарко 1014.7 1011.4 +31.1
19 14.09 СВ 4 20 км ясно +25.2 +10.9 41 +26 +26 жарко 1015.0 1011.7
20 14.09 С 2 20 км ясно +24.4 +10.9 43 +26 +26 жарко 1015.2 1011.9
21 14.09 З 2
{6}
20 км ясно +23.7 +11.3 46 +25 +25 комфорт 1015.4 1012.1
22 14.09 С 4 20 км ясно +23.7 +9.9 42 +25 +25 комфорт 1015.2 1011.9
23 14.09 З 2 20 км ясно +22.3 +11.4 50 +24 +24 комфорт 1015.4 1012.1
00 15.09 З 2
{6}
20 км ясно +21.9 +11.0 50 +24 +24 комфорт 1015.3 1012.0
01 15.09 СВ 4 20 км ясно +22.5 +10.2 46 +24 +24 комфорт 1014.9 1011.6
02 15.09 СВ 5 20 км ясно +22.6 +9.3 43 +24 +24 комфорт 1014.8 1011.5
03 15.09 СВ 4
{10}
20 км ясно +22.6 +8.6 41 +24 +24 комфорт 1015.2 1011.9
04 15.09 СВ 5 20 км ясно +22.3 +7.9 40 +23 +23 комфорт 1015.8 1012.5
05 15.09 СВ 6 20 км ясно +22.9 +7.3 37 +24 +24 комфорт 1016.3 1013.0
06 15.09 СВ 5
{12}
20 км ясно +23.7 +8.0 37 +24 +26 комфорт 1017.2 1013.9 +21.4
07 15.09 СВ 3 20 км ясно +26.2 +8.1 32 +26 +32 жарко 1017.8 1014.5
08 15.09 СВ 4 20 км ясно +27.8 +8.5 30 +28 +34 жарко 1017.7 1014.4
09 15.09 СВ 5
{8}
20 км ясно +28.9 +6.8 25 +28 +34 жарко 1017.2 1013.9
10 15.09 С 4 20 км ясно +29.9 +6.4 23 +29 +38 жарко 1016.7 1013.4
11 15.09 С 5 20 км ясно +30.2 +7.9 25 +29 +37 жарко 1016.1 1012.8
12 15.09 С 4
{10}
20 км ясно +31.2 +8.2 24 +30 +38 жарко 1015.5 1012.2
13 15.09 С 4 20 км ясно +31.3 +8.2 24 +30 +35 жарко 1014.6 1011.3
14 15.09 С 4 20 км ясно +30.7 +10.0 28 +30 +33 жарко 1014.3 1011.0
15 15.09 СВ 6
{8}
20 км ясно +29.7 +12.9 36 +31 +32 жарко 1014.6 1011.3
16 15.09 С 5 20 км ясно +28.0 +12.7 39 +29 +29 жарко 1014.9 1011.6
17 15.09 С 3 20 км ясно +26.7 +12.7 42 +28 +28 жарко 1015.2 1011.9
18 15.09 СВ 5
{9}
20 км ясно +26.0 +12.0 42 +27 +27 жарко 1015.5 1012.2 +31.8
19 15.09 В 2 20 км ясно +25.2 +13.1 47 +27 +27 жарко 1016.0 1012.7
20 15.09 СВ 4 20 км ясно +24.3 +13.5 51 +27 +27 жарко 1016.0 1012.7
21 15.09 С 2
{9}
20 км ясно +23.9 +12.8 50 +26 +26 жарко 1016.3 1013.0
22 15.09 С 1 20 км ясно +23.6 +12.9 51 +26 +26 жарко 1016.1 1012.8
23 15.09 СВ 3 20 км ясно +23.0 +12.6 52 +26 +26 жарко 1016.0 1012.7
00 16.09 В 3
{9}
20 км ясно +22.5 +12.7 54 +25 +25 комфорт 1015.5 1012.2
01 16.09 СВ 4 20 км ясно +21.8 +13.2 58 +24 +24 комфорт 1015.2 1011.9
02 16.09 СВ 2 20 км ясно +21.5 +13.5 60 +24 +24 комфорт 1015.1 1011.8
03 16.09 СВ 2
{7}
20 км ясно +21.2 +13.4 61 +24 +24 комфорт 1015.0 1011.7
04 16.09 В 1 20 км ясно +20.7 +13.5 63 +24 +24 комфорт 1015.2 1011.9
05 16.09 СВ 1 20 км ясно +21.6 +13.3 59 +24 +25 комфорт 1015.3 1012.0
06 16.09 СВ 2
{7}
20 км ясно +23.6 +13.8 54 +26 +29 жарко 1015.3 1012.0 +20.4
07 16.09 С 1 20 км ясно +24.1 +14.2 54 +27 +34 жарко 1015.4 1012.1
08 16.09 СЗ 1 20 км ясно +24.8 +14.3 52 +27 +39 жарко 1015.3 1012.0
09 16.09 З 2
{4}
20 км ясно +25.2 +13.1 47 +27 +41 жарко 1015.0 1011.7
10 16.09 З 2 20 км 1/0
[Ci fib]
+27.1 +13.0 42 +29 +42 жарко 1014.5 1011.2
11 16.09 З 3 20 км 4/0
[Ci fib]
+27.3 +15.0 47 +30 +40 душно 1013.8 1010.5
12 16.09 З 4
{7}
20 км 6/0
[Ci fib]
+26.2 +15.6 52 +29 +36 жарко 1013.4 1010.1
13 16.09 З 4 20 км 5/0
[Ci fib]
+27.3 +13.9 44 +29 +34 жарко 1012.8 1009.5
14 16.09 З 5 20 км 6/0
[Ci fib]
+26.6 +14.0 46 +29 +31 жарко 1012.6 1009.3
15 16.09 З 5
{8}
20 км 6/0
[Ci fib]
+25.5 +14.6 51 +28 +29 жарко 1012.9 1009.6
16 16.09 З 4 20 км 5/0
[Ci fib]
+25.4 +13.6 48 +28 +28 жарко 1013.0 1009.7
17 16.09 З 3 20 км 5/0
[Ci fib]
+24.8 +13.4 49 +27 +27 жарко 1013.1 1009.8
18 16.09 З 3
{8}
20 км 3/0
[Ci fib]
+24.8 +12.0 45 +26 +26 жарко 1013.5 1010.2 +28.4
19 16.09 З 2 20 км ясно +23.9 +12.2 48 +26 +26 жарко 1013.6 1010.3
20 16.09 СЗ 1 20 км ясно +23.6 +12.6 50 +26 +26 жарко 1013.8 1010.5
21 16.09 СЗ 1
{4}
20 км ясно +21.6 +12.2 55 +24 +24 комфорт 1013.8 1010.5
22 16.09 ЮВ 2 20 км ясно +20.8 +12.0 57 +24 +24 комфорт 1013.9 1010.6
23 16.09 Ю 1 20 км ясно +20.0 +12.5 62 +23 +23 комфорт 1013.6 1010.3
00 17.09 ЮВ 1
{4}
20 км 5/0
[Ci fib]
+19.4 +12.7 65 +22 +22 комфорт 1013.5 1010.2
01 17.09 Ю 1 20 км 5/0
[Ci fib]
+19.2 +13.2 68 +22 +22 комфорт 1013.5 1010.2
02 17.09 Ю 1 20 км ясно +18.8 +13.2 70 +21 +21 комфорт 1013.5 1010.2
03 17.09 ЮВ 2
{2}
20 км ясно +18.3 +13.4 73 +19 +19 1013.7 1010.4
04 17.09 Ю 1 20 км 3/0
[Ci fib]
+17.8 +13.5 76 +19 +19 1013.9 1010.6
05 17.09 ЮВ 1 20 км 3/0
[Ci fib]
+18.9 +13.8 72 +21 +22 комфорт 1014.4 1011.1
06 17.09 СЗ 1
{3}
20 км 3/0
[Ci fib]
+21.8 +14.0 61 +25 +28 комфорт 1014.7 1011.4 +17.7
07 17.09 С 1 20 км 3/0
[Ci fib]
+23.6 +15.2 59 +26 +33 жарко 1015.1 1011.8
08 17.09 СЗ 2 20 км 3/0
[Ci fib]
+23.2 +14.5 58 +27 +37 душно 1015.3 1012.0
09 17.09 СЗ 2
{3}
20 км 3/0
[Ci fib]
+26.1 +14.5 49 +29 +41 жарко 1015.0 1011.7
10 17.09 СЗ 2 20 км 3/0
[Ci fib]
+26.9 +13.6 44 +29 +43 жарко 1014.8 1011.5
11 17.09 З 3 20 км 3/0
[Ci fib]
+27.9 +14.1 43 +30 +41 жарко 1014.4 1011.1
12 17.09 З 3
{5}
20 км 3/0
[Ci fib]
+28.3 +12.1 37 +29 +39 жарко 1014.2 1010.9
13 17.09 СЗ 3 20 км ясно +28.2 +11.6 36 +29 +36 жарко 1013.5 1010.2
14 17.09 СЗ 2 20 км ясно +28.4 +11.8 36 +29 +33 жарко 1013.4 1010.1
15 17.09 З 3
{5}
20 км ясно +27.2 +8.9 32 +27 +29 жарко 1013.4 1010.1
16 17.09 З 3 20 км ясно +25.0 +13.5 49 +27 +27 жарко 1013.5 1010.2
17 17.09 З 2 20 км ясно +24.1 +13.6 52 +26 +26 жарко 1013.7 1010.4
18 17.09 Ю 1
{5}
20 км ясно +21.6 +11.3 52 +24 +24 комфорт 1014.5 1011.2 +29.2
19 17.09 Ю 2 20 км ясно +20.7 +7.9 44 +23 +23 комфорт 1014.8 1011.5
20 17.09 ЮВ 1 20 км ясно +20.4 +8.7 47 +23 +23 комфорт 1014.7 1011.4
21 17.09 ЮВ 2
{3}
20 км ясно +19.7 +8.0 47 +21 +21 комфорт 1014.3 1011.0
22 17.09 ЮВ 1 20 км ясно +19.0 +8.9 52 +21 +21 комфорт 1014.1 1010.8
23 17.09 ЮВ 2 20 км ясно +20.5 +10.6 53 +23 +23 комфорт 1014.0 1010.7
00 18.09 ЮВ 2
{5}
20 км ясно +20.3 +11.0 55 +23 +23 комфорт 1014.0 1010.7
01 18.09 ЮВ 2 20 км ясно +19.0 +10.3 57 +21 +21 комфорт 1013.8 1010.5
02 18.09 ЮВ 1 20 км ясно +17.6 +9.8 60 +19 +19 1013.7 1010.4
03 18.09 Ю 1
{3}
20 км ясно +18.5 +10.4 59 +21 +21 комфорт 1013.8 1010.5
04 18.09 ЮВ 2 20 км ясно +20.4 +11.4 56 +23 +23 комфорт 1014.0 1010.7
05 18.09 В 2 20 км ясно +20.8 +12.0 57 +24 +24 комфорт 1014.3 1011.0
06 18.09 З 1
{3}
20 км ясно +22.4 +12.4 53 +25 +28 комфорт 1014.8 1011.5 +17.6
07 18.09 СЗ 1 20 км ясно +25.5 +13.7 48 +28 +35 жарко 1015.0 1011.7
08 18.09 З 1 20 км ясно +26.9 +13.9 45 +29 +40 жарко 1014.8 1011.5
09 18.09 СЗ 3
{4}
20 км ясно +26.4 +10.8 38 +27 +39 жарко 1015.0 1011.7
10 18.09 СЗ 2 20 км ясно +28.0 +11.0 35 +29 +43 жарко 1014.6 1011.3
11 18.09 СЗ 2 20 км ясно +29.5 +11.4 33 +30 +43 жарко 1014.2 1010.9
12 18.09 СЗ 2
{4}
20 км ясно +30.6 +13.3 35 +32 +43 жарко 1013.8 1010.5
13 18.09 С 2 20 км ясно +30.9 +13.1 34 +32 +40 жарко 1013.5 1010.2
14 18.09 ЮВ 3 20 км ясно +32.3 +3.2 16 +30 +33 жарко 1013.2 1009.9
15 18.09 ЮВ 3
{6}
20 км ясно +31.4 +1.6 15 +29 +30 жарко 1013.3 1010.0
16 18.09 С 1 20 км ясно +27.7 +13.2 41 +29 +29 жарко 1013.4 1010.1
17 18.09 СЗ 2 20 км ясно +24.6 +17.2 63 +28 +28 душно 1013.9 1010.6
18 18.09 ЮЗ 1
{6}
20 км ясно +22.5 +13.9 58 +26 +26 жарко 1014.5 1011.2 +32.5
19 18.09 Ю 1 20 км ясно +21.4 +13.1 59 +24 +24 комфорт 1014.8 1011.5
20 18.09 ЮВ 1 20 км ясно +20.3 +8.9 48 +23 +23 комфорт 1015.0 1011.7
21 18.09 ЮВ 1
{3}
20 км ясно +19.1 +8.1 49 +21 +21 комфорт 1015.1 1011.8
22 18.09 ЮВ 1 20 км ясно +18.6 +6.7 46 +20 +20 1015.1 1011.8
23 18.09 Ю 2 20 км ясно +18.2 +7.6 50 +19 +19 1015.0 1011.7
00 19.09 ЮВ 2
{3}
20 км ясно +17.5 +6.6 49 +18 +18 1014.9 1011.6
01 19.09 Ю 2 20 км ясно +17.1 +5.0 45 +17 +17 1014.6 1011.3
02 19.09 ЮВ 2 20 км ясно +16.5 +5.4 48 +17 +17 1014.8 1011.5
03 19.09 ЮВ 1
{3}
20 км ясно +16.6 +6.4 51 +18 +18 1015.1 1011.8
04 19.09 ЮВ 2 20 км ясно +15.8 +7.0 56 +16 +16 1015.0 1011.7
05 19.09 ЮВ 1 20 км ясно +18.0 +8.0 52 +19 +20 1014.9 1011.6
06 19.09 штиль 0
{3}
20 км ясно +23.2 +10.9 46 +25 +29 комфорт 1014.9 1011.6 +15.7
07 19.09 СЗ 1 20 км ясно +24.4 +13.6 51 +27 +34 жарко 1015.2 1011.9
08 19.09 СЗ 2 20 км ясно +24.7 +14.8 54 +27 +37 жарко 1014.9 1011.6
09 19.09 З 2
{4}
20 км ясно +25.2 +13.1 47 +27 +40 жарко 1014.5 1011.2
10 19.09 СЗ 2 20 км ясно +28.4 +9.5 31 +28 +43 жарко 1013.9 1010.6

 

Местоположение метеостанции Измир (Турция): широта 38.43 долгота 27.17 высота над уровнем моря 25 м.

В архиве по умолчанию представлена погода в Измире за последнюю неделю. Архивные данные за месяц целиком и за предыдущие месяцы, начиная с января 2011 года, Вы можете получить, выбрав интересующий диапазон дат из раскрывающегося списка и нажав кнопку "Ввод!".


*Определитесь, кто Вы:
робот инопланетянин человек

Внимание! Время в таблицах - всемирное. Для получения местного времени необходимо прибавить поправку, которая равна 2 ч.

Смотрите также архив погоды в соседних городах и на ближайших метеорологических станциях:

Погода в Измир / Сигли (Турция) (15 км)
Погода в Измир аэропорту (Турция) (18 км)
Погода в Манисе (Турция) (31 км)
Погода в Кушадасы (Турция) (63 км)
Погода в Дикили (Турция) (74 км)
Погода в Чешме (Турция) (77 км)
Погода в Акхисаре (Турция) (80 км)
Погода на Самосе (Греция) (84 км)
Погода в Митилини (Греция) (87 км)
Погода в Айдыне (Турция) (88 км)

Пояснения к столбцам:

Ветер - указаны скорость ветра в м/с - средняя за 10 мин, порывы в срок и между сроками (в фигурных скобках) и направление, откуда дует ветер: С - северный, СВ - северо-восточный, В - восточный, ЮВ - юго-восточный, Ю - южный, ЮЗ - юго-западный, З - западный, СЗ - северо-западный.
Видимость - горизонтальная дальность видимости в метрах или километрах. При видимости от 1 до 10 км при отсутствии осадков обычно наблюдается дымка, при ухудшении видимости до 1 км и менее - туман. В сухую погоду видимость может ухудшаться дымом, пылью или мглою.
Явления - указаны атмосферные явления, наблюдавшиеся в срок или в последний час перед сроком; фигурными скобками обозначены явления, наблюдавшиеся между сроками (за 1-3 часа до срока); квадратными скобками обозначены град или гололедные отложения с указанием их диаметра в мм.
Облачность - указаны через наклонную черту общая и нижняя облачность в баллах и высота нижней границы облаков в метрах; квадратными скобками обозначены формы облаков: Ci - перистые, Cs - перисто-слоистые, Cc - перисто-кучевые, Ac - высококучевые, As - высокослоистые, Sc - слоисто-кучевые, Ns - слоисто-дождевые, Cu - кучевые, Cb - кучево-дождевые. Подробнее классификацию облаков см. в Атласе облаков (PDF).
T - Температура воздуха - температура, измеренная на высоте 2 м над землей.
Td - Температура точки росы - температура, при понижении до которой содержащийся в воздухе водяной пар достигнет насыщения.
f - Относительная влажность воздуха - влажноcть воздуха, измеренная на высоте 2 м над землей.
Te - Эффективная температура - температура, которую ощущает одетый по сезону человек в тени. Характеристика душности погоды. При расчете учитывается влияние влажности воздуха и скорости ветра на теплоощущения человека.
Tes - Эффективная температура на солнце - температура, которую ощущает человек, с поправкой на солнечный нагрев. Характеристика знойности погоды. Зависит от высоты солнца над горизонтом, облачности и скорости ветра. Ночью, в пасмурную погоду, а также при ветре 12 м/с и более поправка равна нулю.
P - Атмосферное давление - приведенное к уровню моря атмосферное давление.
Po - Атмосферное давление - измеренное на уровне метеостанции атмосферное давление.
Tmin - Минимальная температура - минимум температуры воздуха на высоте 2 м над землей.
Tmax - Максимальная температура - максимум температуры воздуха на высоте 2 м над землей.
R - Количество осадков - Количество выпавших осадков за период времени, мм. При наведении курсора мыши на число - период времени, за который выпало указанное количество осадков.
R24 - Количество осадков - Количество выпавших осадков за 24 часа, мм.
S - Снежный покров - Высота снежного покрова, см. При наведении курсора мыши на число - состояние снежного покрова и степень покрытия местности в баллах.